(16) Psyche
ephemeris date magn radius delta ra dec elong phase
Today18 Jul 202511.62.550 AU2.982 AU03h52m+17°39'55.6°19.2°
Opposition7 Dec 20259.72.670 AU1.687 AU05h01m+18°00'175.2°1.8°
(16) Psyche - 2025-07-18
astro.vanbuitenen.nl


 
-1 year
-1 month
-1 day
Now
+1 day
+1 month
+1 year

The interactive orbit chart above shows the body's path through the solar system and its position at the given date. Green and blue lines are shown perpendicular to the ecliptic plane: Green if the path is above the ecliptic plane, blue if it is below. (Left-click and drag to rotate the view; Right-click and drag to move the view; Use scroll wheel to zoom in our out.)

The orbital elements of Psyche are:

            e (Eccentricity)                : 0.1340603
            a (Semimajor axis)              : 2.9221228
            i (Inclination)                 : 3.09735
            Ω (Longitude of ascending node) : 150.01955
            ω (Argument of perihelion)      : 229.63980
            M (Mean anomaly)                : 1.28217
            Epoch                           : 2025 May 05

            L (Longitude of perihelion)     : 199.61801
            B (Latitude of perihelion)      : -2.35966
            P (Orbital period in years)     : 5.00            
        

The light curve chart below shows the estimated development of the minor planet's magnitude.


The all-sky chart below shows the path of the minor planet over the same period as the light curve. The current position is marked yellow.





The following chart shows the path of the minor planet in the next few days. The field of view is optimized for (~10x50) binoculars and finderscopes. A more printer-friendly version of the same chart can be found below.




Ephemerides:
Date       Time       RA (2000)    DEC (2000)    delta   radius  elong  phase   PA    magn
2025-07-18 00:00 UT   03 52 22.0   +17 39 05     2.982    2.550   55.6   19.2   256   11.6 
2025-07-18 23:02 UT   03 53 54.0   +17 43 01     2.973    2.551   56.1   19.3   256   11.6 
2025-07-19 00:00 UT   03 53 57.9   +17 43 11     2.973    2.551   56.2   19.3   256   11.6 
2025-07-20 00:00 UT   03 55 33.4   +17 47 13     2.963    2.551   56.7   19.5   256   11.6 
2025-07-21 00:00 UT   03 57 08.5   +17 51 09     2.953    2.552   57.3   19.6   257   11.6 
2025-07-22 00:00 UT   03 58 43.3   +17 55 01     2.943    2.552   57.9   19.7   257   11.6 
2025-07-23 00:00 UT   04 00 17.7   +17 58 48     2.933    2.553   58.5   19.8   257   11.6 
2025-07-24 00:00 UT   04 01 51.8   +18 02 30     2.923    2.553   59.0   19.9   257   11.6 
2025-07-25 00:00 UT   04 03 25.4   +18 06 07     2.912    2.554   59.6   20.1   257   11.6 
2025-07-26 00:00 UT   04 04 58.6   +18 09 39     2.902    2.554   60.2   20.2   257   11.6 
2025-07-27 00:00 UT   04 06 31.4   +18 13 06     2.892    2.555   60.8   20.3   258   11.6 
2025-07-28 00:00 UT   04 08 03.7   +18 16 28     2.881    2.555   61.4   20.4   258   11.5 
2025-07-29 00:00 UT   04 09 35.6   +18 19 45     2.871    2.556   62.0   20.5   258   11.5 
2025-07-30 00:00 UT   04 11 07.1   +18 22 57     2.861    2.556   62.5   20.6   258   11.5 
2025-07-31 00:00 UT   04 12 38.1   +18 26 05     2.850    2.557   63.1   20.7   258   11.5 
2025-08-01 00:00 UT   04 14 08.6   +18 29 07     2.839    2.558   63.7   20.8   258   11.5 
2025-08-02 00:00 UT   04 15 38.7   +18 32 05     2.829    2.558   64.3   21.0   259   11.5 
2025-08-03 00:00 UT   04 17 08.2   +18 34 58     2.818    2.559   64.9   21.1   259   11.5 
2025-08-04 00:00 UT   04 18 37.3   +18 37 46     2.807    2.559   65.5   21.2   259   11.5 
2025-08-05 00:00 UT   04 20 05.8   +18 40 29     2.796    2.560   66.1   21.2   259   11.5 
2025-08-06 00:00 UT   04 21 33.9   +18 43 08     2.785    2.560   66.7   21.3   259   11.5 
2025-08-07 00:00 UT   04 23 01.3   +18 45 42     2.774    2.561   67.3   21.4   259   11.5 
2025-08-08 00:00 UT   04 24 28.3   +18 48 11     2.763    2.562   68.0   21.5   260   11.5 
2025-08-09 00:00 UT   04 25 54.7   +18 50 36     2.752    2.562   68.6   21.6   260   11.5 
2025-08-10 00:00 UT   04 27 20.5   +18 52 55     2.741    2.563   69.2   21.7   260   11.5 


    Terminology:
            
    delta:  distance between minor planet and earth in AU
    radius: distance between minor planet and sun in AU
    magn:   magnitude (brightness) estimate    
    ra:     right ascension in hours (24h = 360deg)
    dec:    declination in degrees
    elong:  elongation in degrees (angle sun-earth-minor planet)    
    phase:  phase angle in degrees (angle sun-minor planet-earth)        
    AU:     Astronomical Unit (mean distance between earth and sun: 149597870.7 km
    

Orbital elements provided by the MPC (Minor Planet Center).
Calculations by a modified version of AAPlus, a C# implementation of the AA+ project by PJ Naughter from the algorithms presented in the book "Astronomical Algorithms" by Jean Meeus.
NGC2000 dso catalog and star labels from VizieR as provided by the Strasbourg astronomical Data Center.
Tycho2 catalog from the ESO archive.